STARLINK-33913, 65215

Orbit data source: Space-Track

STARLINK-33913, 65215 is a payload satellite owned by SpaceX/Seattle (US) in LEO that was launched on Thu, 14 Aug 2025 UTC via an FALCON 9 launch vehicle from the Air Force Eastern Test Range (AFETR). Payload-class satellites include a variety of spacecraft equipped with specific instruments for various scientific and technological missions. These include communications satellites like Starlink; space stations such as the ISS; scientific satellites like the Hubble; Earth observation satellites from companies like Planet Labs, Umbra, and HawkEye 360; GPS; miniature CubeSats for education and research; and military/defense satellites.

Loading next visibility...
Identifier
65215, 2025-176T
Orbit
LEO
Country
Flag of USUS
Related business
Manufacturer
SpaceX/Seattle
Mission
Operational Commercial Communications
Bus & Motor
STARLINK V2MO, Unknown motor
Mass
575 kg wet, ~530 kg dry
Launch date (UTC)
2025-08-14 (10 months ago)
Launch vehicle
FALCON 9
Launch site
Air Force Eastern Test Range (AFETR)
Object type
Payload
Rocket body
Debris
Shape & HBR
Box + 2 Pan, 17.7 m
Radar Cross Section
36.964 m², Large (>1 m²)

Expand to show TLE details & history
Last TLE update: 1 day ago

TLE from 1 day ago
0 STARLINK-33913
1 65215U 25176T   26170.87146968  .00020736  00000-0  62370-3 0  9994
2 65215  53.1600  38.9089 0001456  72.6222 287.4939 15.34372362 48752
Epoch: 2026-06-19T20:54Z
TLE epoch observation values (Epoch: 2026-06-19T20:54:54.980Z)
Latitude
-0.00007°
Longitude
177.08554°
Altitude
463.387 km
Speed
7.636 km/s
True Right ascension
02h 35m 38s
True Declination
0° 00' 00"
Sunlit
Object was in daylight at epoch
Visualization orbit readout
Latitude
Unknown
Longitude
Unknown
Altitude
Unknown
Speed
Unknown
Apparent Right ascension
Unknown
Apparent Declination
Unknown
Sunlit
N/A
Visualization observer readout
Local Sidereal Time
07:23:44
Azimuth
Unknown
Elevation
Unknown
Doppler factor
Unknown
Orbital elements
Apogee altitude
464.038 km
Perigee altitude
462.046 km
Semi-major axis
6,841.179 km
Eccentricity
0.00015
Inclination
53.16°
RAAN
38.9089°
Arg. of periapsis
72.6222°
True anomaly
287.47799°
Mean anomaly
287.4939°
Eccentric anomaly
287.48594°
Mean motion
3.83572 °/min
Orbital period
93.85 mins
BSTAR
0.0006237
Loading maneuver chart data...
Computing Atmospheric mass density...
Loading historical data...
Loading historical data...
Loading historical data...
Loading historical data...
Loading historical data...
Loading historical data...
Loading historical data...

Documentation

Showing up to 5 results
|